Find Starlink 6368

NORAD ID: 57234 Int'l Des: 2023-094 Owner: SPXS Country: US Constellation: starlink operational
LEOCIRCULAR

当前视图

正在加载3D地球...

About Starlink 6368

Starlink 6368 (NORAD 57234) is a starlink constellation satellite (v1.5) launched Jul 7, 2023 by SPXS of US. It operates in LEO, CIRCULAR orbit with a mass of 305.00 kg.

关于 Starlink 6368

正在加载描述...

即将过境

Passes for default location (London). Set your location on the main map for personalized predictions.

高度历史

Loading altitude history...

两行轨道根数

1 57234U 23094S 26166.79819643 -.00000600 00000-0 -12289-4 0 9991
2 57234 43.0013 196.3291 0001150 306.4978 53.5767 15.27573108162123
Epoch: Jun 15, 2026 • Age: 17 hours

当前状态

高度 482.0 km
速度 7.63 km/s
星下点 3.46°N, 104.56°E
发射日期 Jul 7, 2023
运行时间 2.9 years
类型 internet

技术详情

分类 Payload
质量 305.00 kg
干质量 290.00 kg
总质量 305.00 kg
长度 0.20 m
直径 2.80 m
跨度 9.00 m
形状 Box + pan
制造商 SPXS
平台类型 Starlink
阶段状态 In Orbit
所有者/国家 SPXS/US

Most Searched